Simultaneous Nadir Overpasses (SNOs) Predictions

Prediction of SNOs between LANDSAT-8 and TERRA Satellite Orbit:

Table of predicted SNOs for the next 14.0 days since TLE Epoch: 12/25/2022
Index Date (LANDSAT-8) Time (LANDSAT-8) Lat,Lon (LANDSAT-8) SZA (LANDSAT-8 ) Date (TERRA) Time (TERRA) Lat,Lon (TERRA) SZA (TERRA ) Distance(km) Time Diff (sec)
1 01/07/2023 06:51:27 -78.25, 6.73 64.43 01/07/2023 06:52:39 -78.24, 6.83 64.35 2.72 72
2 01/07/2023 07:40:46 77.91, 175.98 115.97 01/07/2023 07:41:55 77.90, 176.02 116.04 1.29 69
3 01/07/2023 08:30:05 -77.59, -14.98 63.67 01/07/2023 08:31:10 -77.59, -14.98 63.62 0.04 65
4 01/07/2023 09:19:25 77.27, 153.93 116.68 01/07/2023 09:20:27 77.28, 153.89 116.72 1.50 62
5 01/07/2023 10:08:40 -76.75, -36.50 62.77 01/07/2023 10:09:38 -76.77, -36.58 62.74 2.78 58
6 01/07/2023 10:58:16 77.17, 129.58 116.77 01/07/2023 10:59:10 77.16, 129.66 116.84 2.46 54
7 01/07/2023 11:47:33 -76.79, -61.37 62.83 01/07/2023 11:48:23 -76.79, -61.34 62.77 1.17 50
8 01/07/2023 12:36:51 76.36, 107.73 117.63 01/07/2023 12:37:38 76.37, 107.73 117.67 0.32 47
9 01/07/2023 13:26:04 -75.73, -82.65 61.72 01/07/2023 13:26:47 -75.74, -82.69 61.70 1.53 43
10 01/07/2023 14:15:23 75.33, 86.13 118.68 01/07/2023 14:16:03 75.35, 86.06 118.70 3.08 40
11 01/07/2023 15:04:59 -75.82,-107.65 61.83 01/07/2023 15:05:34 -75.81,-107.59 61.78 2.43 35
12 01/07/2023 15:54:12 75.12, 61.96 118.88 01/07/2023 15:54:44 75.12, 61.98 118.92 0.91 32
13 01/07/2023 16:43:25 -74.47,-128.73 60.48 01/07/2023 16:43:53 -74.47,-128.74 60.46 0.23 28
14 01/07/2023 17:32:39 73.79, 40.47 120.18 01/07/2023 17:33:04 73.80, 40.43 120.19 1.81 25
15 01/07/2023 18:21:43 -72.64,-149.56 58.75 01/07/2023 18:22:04 -72.66,-149.61 58.75 2.84 21
16 01/07/2023 19:11:27 73.52, 16.32 120.42 01/07/2023 19:11:44 73.51, 16.37 120.46 2.20 17
17 01/07/2023 20:00:38 -72.74,-174.47 58.85 01/07/2023 20:00:51 -72.74,-174.45 58.83 1.17 13
18 01/07/2023 20:49:44 71.60, -4.79 122.21 01/07/2023 20:49:54 71.60, -4.80 122.22 0.47 10
19 01/07/2023 21:38:45 -70.26, 164.93 56.59 01/07/2023 21:38:51 -70.27, 164.91 56.59 1.34 6
20 01/07/2023 22:27:51 69.07, -25.81 124.47 01/07/2023 22:27:54 69.10, -25.85 124.44 3.10 3
21 01/07/2023 23:17:43 -70.53, 139.82 56.84 01/07/2023 23:17:41 -70.52, 139.87 56.82 2.71 2
22 01/08/2023 00:06:33 68.46, -49.76 125.00 01/08/2023 00:06:28 68.45, -49.74 125.00 1.00 5
23 01/08/2023 00:55:32 -66.98, 119.57 53.74 01/08/2023 00:55:23 -66.98, 119.57 53.75 0.37 9
24 01/08/2023 01:44:19 64.67, -70.53 128.21 01/08/2023 01:44:07 64.68, -70.55 128.18 1.51 12
25 01/08/2023 02:32:59 -62.09, 99.23 49.68 01/08/2023 02:32:43 -62.10, 99.20 49.73 1.80 16



Historial Predications of SNOs between LANDSAT-8 and TERRA
